Airfield :
LOGIN :

Register | Disclaimer

   EN    FR    IT 

 










Legend :    VFR   Marginal VFR   IFR   Intensive IFR   Very Intensive IFR
Visi :
Ceiling :
>= 8 km
>= 3000ft
5 to 8 km
1000 to 3000 ft
1500m to 5 km
500 to 1000 ft
800 to 1500m
200 to 500 ft
< 800m
< 200 ft
Symbols :   Thunderstorms  Fog  Heavy snow  Heavy precipitations  Wind > 20 kt
SIGMETs :     Misc.  Thunderstorms  Icing  Turbulence  Mountain Waves  Volcanic Ashes







- Airport Elevation : 390 ft
- IATA code : NQY
- Download approach charts


EGHQ - Newquay

CURRENT METAR :
  • 190850Z 19009KT 9999 FEW030CB 06/04 Q1004

EXPIRED METARs :
  • 190820Z 19009KT 9999 FEW030 06/04 Q1004 RERA
  • 190750Z 21008KT 9999 VCSH SCT025 FEW030CB 06/05 Q1004 RESHRA
  • 190720Z 20010KT 9999 FEW025 06/04 Q1004
  • 190650Z 20009KT 9999 FEW040 06/05 Q1003

TAF TAF EGHQ
Valid from the 19 at 09:00 until the 19 at 18:00 UTC


190800Z 1909/1918 21015KT 9999 SCT025
TEMPO 1909/1918 7000 SHRA
PROB40
TEMPO 1909/1918 23018G30KT 4000 +SHRA BKN012 BKN025CB
No reported NOTAMs for that airfield.



MET'MAP, your aeronautical weather chart ! - Copyright ORBIFLY December 2007 - Disclaimer

ORBIFLY MET'MAP TEAM :

Programming & Development : Alexandra Zaïnal
Concept & Development : Baudouin d'Aumeries
Co-Development & Prog : Marc-Olivier Méhu
Technical & hardware support : Manuel Goepfert

Contact : metmap@orbifly.com




SOURCES & CREDITS :

   NOAA